| time (UTC) | temp F | wind direction | speed knots | gust knots | rain 1hr in | rain 24hr in | rain mn in | humidity % | barometer mb |
| 20260504060106 | 46 | 129 | 0.0 | 1.7 | 0.00 | 0.00 | 0.00 | 35 | 1017.0 |
| 20260504050551 | 46 | 111 | 0.0 | 1.7 | 0.00 | 0.00 | 0.00 | 39 | 1016.9 |
| 20260504045549 | 46 | 113 | 0.9 | 1.7 | 0.00 | 0.00 | 0.00 | 41 | 1016.8 |
| 20260504045048 | 46 | 119 | 0.0 | 1.7 | 0.00 | 0.00 | 0.00 | 41 | 1016.8 |
| 20260504044547 | 46 | 241 | 0.0 | 0.0 | 0.00 | 0.00 | 0.00 | 41 | 1016.8 |
| 20260504044047 | 46 | 241 | 0.0 | 0.0 | 0.00 | 0.00 | 0.00 | 41 | 1016.8 |
| 20260504043549 | 46 | 241 | 0.0 | 0.0 | 0.00 | 0.00 | 0.00 | 41 | 1016.8 |
| 20260504043055 | 46 | 241 | 0.0 | 0.0 | 0.00 | 0.00 | 0.00 | 42 | 1016.8 |
| 20260504042547 | 46 | 241 | 0.0 | 0.0 | 0.00 | 0.00 | 0.00 | 42 | 1016.8 |
| 20260504042049 | 46 | 241 | 0.0 | 0.0 | 0.00 | 0.00 | 0.00 | 42 | 1016.9 |
| 20260504041545 | 47 | 241 | 0.0 | 0.0 | 0.00 | 0.00 | 0.00 | 42 | 1016.9 |
| 20260504041043 | 47 | 241 | 0.0 | 0.0 | 0.00 | 0.00 | 0.00 | 43 | 1016.8 |
| 20260504040543 | 47 | 241 | 0.0 | 0.0 | 0.00 | 0.00 | 0.00 | 44 | 1016.8 |
| 20260504040044 | 47 | 241 | 0.0 | 0.0 | 0.00 | 0.00 | 0.00 | 44 | 1016.8 |
| 20260504035540 | 47 | 241 | 0.0 | 0.0 | 0.00 | 0.00 | 0.00 | 45 | 1016.9 |
| 20260504035044 | 47 | 241 | 0.0 | 0.0 | 0.00 | 0.00 | 0.00 | 46 | 1016.8 |
| 20260504034539 | 47 | 241 | 0.0 | 0.0 | 0.00 | 0.00 | 0.00 | 46 | 1016.9 |
| 20260504034035 | 47 | 241 | 0.0 | 0.0 | 0.00 | 0.00 | 0.00 | 47 | 1016.9 |
| 20260504033534 | 47 | 241 | 0.0 | 0.0 | 0.00 | 0.00 | 0.00 | 48 | 1016.8 |
| 20260504033037 | 47 | 241 | 0.0 | 0.0 | 0.00 | 0.00 | 0.00 | 48 | 1017.0 |
| 20260504032532 | 47 | 241 | 0.0 | 0.0 | 0.00 | 0.00 | 0.00 | 48 | 1016.8 |
| 20260504032033 | 48 | 241 | 0.0 | 0.0 | 0.00 | 0.00 | 0.00 | 49 | 1016.8 |
| 20260504031529 | 48 | 241 | 0.0 | 0.0 | 0.00 | 0.00 | 0.00 | 49 | 1016.8 |
| 20260504031027 | 48 | 241 | 0.0 | 0.0 | 0.00 | 0.00 | 0.00 | 50 | 1016.8 |
| 20260504030526 | 48 | 241 | 0.0 | 0.0 | 0.00 | 0.00 | 0.00 | 51 | 1016.7 |
| 20260504030024 | 48 | 241 | 0.0 | 0.0 | 0.00 | 0.00 | 0.00 | 51 | 1016.7 |
| 20260504025525 | 48 | 241 | 0.0 | 0.0 | 0.00 | 0.00 | 0.00 | 52 | 1016.8 |
| 20260504025023 | 48 | 241 | 0.0 | 0.0 | 0.00 | 0.00 | 0.00 | 52 | 1016.7 |
| 20260504024519 | 48 | 241 | 0.0 | 0.0 | 0.00 | 0.00 | 0.00 | 52 | 1016.8 |
| 20260504024019 | 49 | 241 | 0.0 | 0.0 | 0.00 | 0.00 | 0.00 | 52 | 1016.8 |
| 20260504023517 | 49 | 241 | 0.0 | 0.0 | 0.00 | 0.00 | 0.00 | 52 | 1016.8 |
| 20260504023016 | 49 | 241 | 0.0 | 0.0 | 0.00 | 0.00 | 0.00 | 52 | 1016.8 |
| 20260504022515 | 49 | 241 | 0.0 | 0.0 | 0.00 | 0.00 | 0.00 | 53 | 1016.8 |
| 20260504022015 | 49 | 241 | 0.0 | 0.0 | 0.00 | 0.00 | 0.00 | 53 | 1016.7 |
| 20260504021515 | 49 | 241 | 0.0 | 0.0 | 0.00 | 0.00 | 0.00 | 53 | 1016.7 |
| 20260504021012 | 50 | 241 | 0.0 | 0.0 | 0.00 | 0.00 | 0.00 | 54 | 1016.8 |
| 20260504020511 | 50 | 241 | 0.0 | 0.0 | 0.00 | 0.00 | 0.00 | 54 | 1016.8 |
| 20260504020009 | 50 | 241 | 0.0 | 0.0 | 0.00 | 0.00 | 0.00 | 54 | 1016.8 |
| 20260504015508 | 50 | 241 | 0.0 | 0.0 | 0.00 | 0.00 | 0.00 | 54 | 1016.7 |
| 20260504015007 | 51 | 241 | 0.0 | 0.0 | 0.00 | 0.00 | 0.00 | 54 | 1016.6 |
| 20260504014505 | 51 | 241 | 0.0 | 0.0 | 0.00 | 0.00 | 0.00 | 55 | 1016.6 |
| 20260504014003 | 51 | 241 | 0.0 | 0.0 | 0.00 | 0.00 | 0.00 | 55 | 1016.6 |
| 20260504013503 | 51 | 241 | 0.0 | 0.0 | 0.00 | 0.00 | 0.00 | 56 | 1016.6 |
| 20260504013107 | 52 | 241 | 0.0 | 0.0 | 0.00 | 0.00 | 0.00 | 56 | 1016.7 |
| 20260504012559 | 52 | 241 | 0.0 | 0.0 | 0.00 | 0.00 | 0.00 | 56 | 1016.6 |
| 20260504012058 | 52 | 241 | 0.0 | 0.0 | 0.00 | 0.00 | 0.00 | 56 | 1016.6 |
| 20260504011556 | 52 | 241 | 0.0 | 0.0 | 0.00 | 0.00 | 0.00 | 56 | 1016.5 |
| 20260504011057 | 53 | 241 | 0.0 | 0.0 | 0.00 | 0.00 | 0.00 | 56 | 1016.4 |
| 20260504010553 | 53 | 241 | 0.0 | 0.0 | 0.00 | 0.00 | 0.00 | 55 | 1016.5 |
| 20260504010052 | 53 | 241 | 0.0 | 0.0 | 0.00 | 0.00 | 0.00 | 54 | 1016.6 |
| 20260504005551 | 54 | 241 | 0.0 | 0.0 | 0.00 | 0.00 | 0.00 | 53 | 1016.6 |
| 20260504005050 | 54 | 241 | 0.0 | 0.0 | 0.00 | 0.00 | 0.00 | 53 | 1016.7 |
| 20260504004548 | 54 | 241 | 0.0 | 0.0 | 0.00 | 0.00 | 0.00 | 52 | 1016.5 |
| 20260504004046 | 55 | 241 | 0.0 | 0.0 | 0.00 | 0.00 | 0.00 | 52 | 1016.5 |
| 20260504003544 | 55 | 241 | 0.0 | 0.0 | 0.00 | 0.00 | 0.00 | 51 | 1016.4 |
| 20260504003046 | 55 | 241 | 0.0 | 0.0 | 0.00 | 0.00 | 0.00 | 49 | 1016.3 |
| 20260504002545 | 56 | 241 | 0.0 | 0.0 | 0.00 | 0.00 | 0.00 | 48 | 1016.3 |
| 20260504002040 | 56 | 241 | 0.0 | 0.0 | 0.00 | 0.00 | 0.00 | 47 | 1016.3 |
| 20260504001540 | 57 | 241 | 0.0 | 0.0 | 0.00 | 0.00 | 0.00 | 47 | 1016.2 |
| 20260504001038 | 57 | 241 | 0.0 | 0.0 | 0.00 | 0.00 | 0.00 | 46 | 1016.1 |
| 20260504000540 | 57 | 241 | 0.0 | 0.0 | 0.00 | 0.00 | 0.00 | 44 | 1016.0 |
| 20260504000038 | 58 | 241 | 0.0 | 0.0 | 0.00 | 0.00 | 0.00 | 44 | 1016.0 |
| 20260503235533 | 58 | 241 | 0.0 | 0.0 | 0.00 | 0.00 | 0.00 | 43 | 1016.0 |
| 20260503235032 | 58 | 241 | 0.0 | 0.0 | 0.00 | 0.00 | 0.00 | 42 | 1015.8 |
| 20260503234530 | 59 | 241 | 0.0 | 0.0 | 0.00 | 0.00 | 0.00 | 41 | 1015.8 |
| 20260503234029 | 59 | 241 | 0.0 | 0.0 | 0.00 | 0.00 | 0.00 | 40 | 1015.8 |
| 20260503233528 | 59 | 241 | 0.0 | 0.0 | 0.00 | 0.00 | 0.00 | 41 | 1015.8 |
| 20260503233026 | 59 | 241 | 0.0 | 0.0 | 0.00 | 0.00 | 0.00 | 42 | 1015.8 |
| 20260503232524 | 60 | 241 | 0.0 | 0.0 | 0.00 | 0.00 | 0.00 | 42 | 1015.8 |
| 20260503232023 | 60 | 241 | 0.0 | 0.0 | 0.00 | 0.00 | 0.00 | 42 | 1015.7 |
| 20260503231523 | 60 | 241 | 0.0 | 0.0 | 0.00 | 0.00 | 0.00 | 40 | 1015.7 |
| 20260503231020 | 60 | 241 | 0.0 | 0.0 | 0.00 | 0.00 | 0.00 | 39 | 1015.7 |
| 20260503230521 | 60 | 241 | 0.0 | 0.0 | 0.00 | 0.00 | 0.00 | 38 | 1015.6 |
| 20260503230018 | 60 | 241 | 0.0 | 0.0 | 0.00 | 0.00 | 0.00 | 38 | 1015.7 |
| 20260503225516 | 60 | 241 | 0.0 | 0.0 | 0.00 | 0.00 | 0.00 | 37 | 1015.8 |
| 20260503225014 | 61 | 241 | 0.0 | 0.0 | 0.00 | 0.00 | 0.00 | 35 | 1015.8 |
| 20260503224513 | 61 | 241 | 0.0 | 0.0 | 0.00 | 0.00 | 0.00 | 37 | 1015.7 |
| 20260503224011 | 61 | 241 | 0.0 | 0.0 | 0.00 | 0.00 | 0.00 | 35 | 1015.7 |
| 20260503223510 | 61 | 241 | 0.0 | 0.0 | 0.00 | 0.00 | 0.00 | 36 | 1015.8 |
| 20260503223009 | 61 | 241 | 0.0 | 0.9 | 0.00 | 0.00 | 0.00 | 35 | 1015.8 |
| 20260503222508 | 61 | 241 | 0.0 | 0.9 | 0.00 | 0.00 | 0.00 | 35 | 1015.9 |
| 20260503222005 | 61 | 241 | 0.0 | 0.0 | 0.00 | 0.00 | 0.00 | 35 | 1015.8 |
| 20260503221506 | 61 | 241 | 0.0 | 0.9 | 0.00 | 0.00 | 0.00 | 35 | 1015.9 |
| 20260503221003 | 61 | 241 | 0.0 | 0.9 | 0.00 | 0.00 | 0.00 | 34 | 1015.9 |
| 20260503220504 | 61 | 241 | 0.0 | 1.7 | 0.00 | 0.00 | 0.00 | 33 | 1016.1 |
| 20260503220101 | 61 | 241 | 0.0 | 1.7 | 0.00 | 0.00 | 0.00 | 33 | 1016.1 |
| 20260503215558 | 61 | 241 | 0.0 | 2.6 | 0.00 | 0.00 | 0.00 | 33 | 1016.2 |
| 20260503215057 | 61 | 241 | 0.0 | 3.5 | 0.00 | 0.00 | 0.00 | 33 | 1016.1 |
| 20260503214555 | 61 | 242 | 0.9 | 2.6 | 0.00 | 0.00 | 0.00 | 33 | 1016.2 |
| 20260503214054 | 62 | 242 | 0.0 | 3.5 | 0.00 | 0.00 | 0.00 | 32 | 1016.2 |
| 20260503213553 | 62 | 129 | 0.0 | 0.0 | 0.00 | 0.00 | 0.00 | 31 | 1016.1 |
| 20260503213100 | 62 | 129 | 0.0 | 1.7 | 0.00 | 0.00 | 0.00 | 32 | 1016.1 |
| 20260503212550 | 62 | 129 | 0.9 | 2.6 | 0.00 | 0.00 | 0.00 | 32 | 1016.1 |
| 20260503212047 | 62 | 130 | 0.9 | 2.6 | 0.00 | 0.00 | 0.00 | 32 | 1016.1 |
| 20260503211605 | 62 | 116 | 0.0 | 2.6 | 0.00 | 0.00 | 0.00 | 33 | 1015.9 |
| 20260503211045 | 62 | 226 | 0.0 | 1.7 | 0.00 | 0.00 | 0.00 | 31 | 1015.9 |
| 20260503210546 | 62 | 290 | 0.0 | 2.6 | 0.00 | 0.00 | 0.00 | 31 | 1016.0 |
| 20260503210043 | 63 | 290 | 0.0 | 3.5 | 0.00 | 0.00 | 0.00 | 30 | 1016.0 |
| 20260503205541 | 63 | 268 | 0.0 | 3.5 | 0.00 | 0.00 | 0.00 | 30 | 1016.1 |
| 20260503205039 | 63 | 268 | 0.0 | 2.6 | 0.00 | 0.00 | 0.00 | 30 | 1016.1 |
| 20260503204538 | 64 | 268 | 0.9 | 2.6 | 0.00 | 0.00 | 0.00 | 30 | 1016.0 |
| 20260503204037 | 64 | 265 | 0.9 | 3.5 | 0.00 | 0.00 | 0.00 | 30 | 1016.1 |
| 20260503203536 | 64 | 266 | 1.7 | 3.5 | 0.00 | 0.00 | 0.00 | 30 | 1016.0 |
| 20260503203039 | 65 | 360 | 0.9 | 2.6 | 0.00 | 0.00 | 0.00 | 29 | 1016.0 |
| 20260503202532 | 65 | 49 | 0.0 | 2.6 | 0.00 | 0.00 | 0.00 | 28 | 1016.1 |
| 20260503202030 | 66 | 63 | 0.0 | 2.6 | 0.00 | 0.00 | 0.00 | 29 | 1016.2 |
| 20260503201529 | 66 | 315 | 0.9 | 2.6 | 0.00 | 0.00 | 0.00 | 28 | 1016.2 |
| 20260503201027 | 67 | 12 | 0.9 | 2.6 | 0.00 | 0.00 | 0.00 | 28 | 1016.2 |
| 20260503200526 | 67 | 339 | 0.9 | 2.6 | 0.00 | 0.00 | 0.00 | 29 | 1016.3 |
| 20260503200033 | 66 | 5 | 0.9 | 2.6 | 0.00 | 0.00 | 0.00 | 29 | 1016.3 |
| 20260503195524 | 66 | 355 | 0.9 | 2.6 | 0.00 | 0.00 | 0.00 | 29 | 1016.5 |
| 20260503195021 | 67 | 303 | 0.9 | 3.5 | 0.00 | 0.00 | 0.00 | 29 | 1016.7 |
| 20260503194520 | 67 | 234 | 0.9 | 5.2 | 0.00 | 0.00 | 0.00 | 29 | 1016.7 |
| 20260503194018 | 66 | 336 | 0.9 | 5.2 | 0.00 | 0.00 | 0.00 | 28 | 1016.7 |
| 20260503193517 | 66 | 346 | 0.9 | 2.6 | 0.00 | 0.00 | 0.00 | 28 | 1016.8 |
| 20260503193015 | 67 | 22 | 1.7 | 3.5 | 0.00 | 0.00 | 0.00 | 28 | 1016.8 |
| 20260503192514 | 67 | 263 | 0.9 | 3.5 | 0.00 | 0.00 | 0.00 | 29 | 1016.9 |
| 20260503192012 | 67 | 34 | 0.0 | 3.5 | 0.00 | 0.00 | 0.00 | 28 | 1016.9 |
| 20260503191516 | 67 | 326 | 0.9 | 3.5 | 0.00 | 0.00 | 0.00 | 28 | 1017.0 |
| 20260503191010 | 68 | 341 | 1.7 | 4.3 | 0.00 | 0.00 | 0.00 | 27 | 1017.2 |
| 20260503190507 | 68 | 88 | 0.0 | 3.5 | 0.00 | 0.00 | 0.00 | 29 | 1017.4 |
| 20260503190009 | 68 | 332 | 1.7 | 4.3 | 0.00 | 0.00 | 0.00 | 28 | 1017.3 |
| 20260503185506 | 69 | 157 | 0.9 | 2.6 | 0.00 | 0.00 | 0.00 | 29 | 1017.4 |
| 20260503185003 | 68 | 148 | 0.0 | 2.6 | 0.00 | 0.00 | 0.00 | 31 | 1017.5 |
| 20260503184633 | 68 | 148 | 0.9 | 1.7 | 0.00 | 0.00 | 0.00 | 31 | 1017.5 |
| 20260503184102 | 67 | 133 | 0.9 | 3.5 | 0.00 | 0.00 | 0.00 | 33 | 1017.4 |
| 20260503183559 | 67 | 116 | 1.7 | 3.5 | 0.00 | 0.00 | 0.00 | 29 | 1017.6 |
| 20260503183101 | 67 | 237 | 0.9 | 3.5 | 0.00 | 0.00 | 0.00 | 31 | 1017.6 |
| 20260503182556 | 67 | 242 | 0.9 | 4.3 | 0.00 | 0.00 | 0.00 | 31 | 1017.6 |
| 20260503182055 | 67 | 234 | 0.9 | 4.3 | 0.00 | 0.00 | 0.00 | 31 | 1017.6 |
| 20260503181611 | 67 | 29 | 0.0 | 2.6 | 0.00 | 0.00 | 0.00 | 32 | 1017.8 |
| 20260503181053 | 66 | 30 | 1.7 | 3.5 | 0.00 | 0.00 | 0.00 | 31 | 1017.8 |
| 20260503180551 | 66 | 337 | 0.9 | 3.5 | 0.00 | 0.00 | 0.00 | 31 | 1017.8 |
| 20260503180107 | 67 | 318 | 1.7 | 3.5 | 0.00 | 0.00 | 0.00 | 32 | 1017.8 |
| 20260503175548 | 66 | 36 | 0.0 | 4.3 | 0.00 | 0.00 | 0.00 | 31 | 1017.7 |
| 20260503175046 | 66 | 5 | 0.9 | 6.1 | 0.00 | 0.00 | 0.00 | 32 | 1017.9 |
| 20260503174554 | 66 | 289 | 0.9 | 6.1 | 0.00 | 0.00 | 0.00 | 32 | 1017.8 |
| 20260503174044 | 66 | 121 | 0.9 | 5.2 | 0.00 | 0.00 | 0.00 | 30 | 1017.9 |
| 20260503173542 | 66 | 326 | 0.9 | 2.6 | 0.00 | 0.00 | 0.00 | 34 | 1017.9 |
| 20260503173053 | 65 | 29 | 0.0 | 4.3 | 0.00 | 0.00 | 0.00 | 31 | 1017.9 |
| 20260503172542 | 65 | 274 | 0.9 | 4.3 | 0.00 | 0.00 | 0.00 | 31 | 1018.1 |
| 20260503172037 | 65 | 32 | 0.0 | 2.6 | 0.00 | 0.00 | 0.00 | 33 | 1018.1 |
| 20260503171536 | 64 | 38 | 1.7 | 2.6 | 0.00 | 0.00 | 0.00 | 31 | 1018.1 |
| 20260503171035 | 64 | 264 | 0.9 | 2.6 | 0.00 | 0.00 | 0.00 | 31 | 1018.4 |
| 20260503170533 | 64 | 227 | 1.7 | 4.3 | 0.00 | 0.00 | 0.00 | 32 | 1018.3 |
| 20260503150557 | 57 | 242 | 0.9 | 3.5 | 0.00 | 0.00 | 0.00 | 37 | 1019.2 |
| 20260503150108 | 57 | 250 | 0.9 | 5.2 | 0.00 | 0.00 | 0.00 | 40 | 1019.1 |
| 20260503131023 | 51 | 134 | 0.0 | 2.6 | 0.00 | 0.00 | 0.00 | 52 | 1018.8 |
| 20260503130523 | 51 | 85 | 0.9 | 2.6 | 0.00 | 0.00 | 0.00 | 52 | 1018.7 |
| 20260503110548 | 41 | 94 | 0.0 | 0.9 | 0.00 | 0.00 | 0.00 | 2 | 1017.8 |
| 20260503090512 | 48 | 107 | 0.0 | 1.7 | 0.00 | 0.00 | 0.00 | 57 | 1015.9 |
| 20260503081557 | 49 | 332 | 0.0 | 1.7 | 0.00 | 0.00 | 0.00 | 56 | 1015.4 |
| 20260503081055 | 49 | 332 | 0.0 | 0.0 | 0.00 | 0.00 | 0.00 | 56 | 1015.3 |
| 20260503080557 | 49 | 332 | 0.0 | 1.7 | 0.00 | 0.00 | 0.00 | 56 | 1015.3 |
| 20260503080105 | 49 | 332 | 0.0 | 3.5 | 0.00 | 0.00 | 0.00 | 55 | 1015.3 |